HST
1 20580U 90037B   24104.19871790  .00005874  00000-0  28231-3 0  9990
2 20580  28.4692  60.2311 0002662  47.3292 312.7524 15.16684019667413
ISS (ZARYA)
1 25544U 98067A   24104.50678933  .00014597  00000-0  26181-3 0  9999
2 25544  51.6398 276.1075 0004650  66.0875 326.1313 15.50152777448510
CXO
1 25867U 99040B   24104.39900763  .00000859  00000-0  00000-0 0  9990
2 25867  39.7933 160.1482 8951194 291.8037   0.1094  0.37811186 14322